Tracking 30995 objects as of 6-Jul-2025
HD Live streaming from Space Station
objects crossing your sky now

DELTA 1 R/B

Track DELTA 1 R/B now!
10-day predictions


NORAD ID: 515
Int'l Code: 1962-068B
Perigee: 1,331.6 km
Apogee: 7,420.0 km
Inclination: 47.5 °
Period: 184.8 minutes
Semi major axis: 10746 km
RCS: 0.4654 m2 (medium)
Launch date: December 13, 1962
Source: United States (US)
Launch site: AIR FORCE EASTERN TEST RANGE (AFETR)

Note: This is a ROCKET BODY
Your satellite tracking list
Your tracking list is empty




NASA's NSSDC Master Catalog

Two Line Element Set (TLE):
1 00515U 62068B   25186.09446733 -.00000017  00000-0  00000-0 0  9990
2 00515  47.5167  82.7418 2832642 217.4130 119.1384  7.79261148780791
Source of the keplerian elements: AFSPC